period_start,C,m1,H,J0,J1,J2,J3,J4,J5,JA,JB,JC,JD,JJ,JK,JN,#
2013-08-12 00:00:25,0.47,2.42,0.00,31.90,35.75,36.92,5.77,31.63,1001.58,2012.49,2505.16,2649.24,2845.54,350.41,310.23,31.12,0000 0000 0000 0000 000000
2013-08-12 00:01:25,0.39,2.43,0.00,31.96,35.75,36.91,5.74,31.79,1001.54,2012.44,2504.77,2649.05,2845.19,350.23,309.69,31.13,0000 0000 0000 0000 000000
2013-08-12 00:02:26,0.19,2.43,0.00,31.99,35.75,36.90,5.65,31.79,1001.54,2012.39,2504.32,2648.68,2844.93,350.22,310.43,31.14,0000 0000 0000 0000 000000
2013-08-12 00:03:26,0.20,2.43,0.00,31.95,35.75,36.88,5.81,31.63,1001.57,2012.42,2504.03,2648.26,2844.43,350.49,310.01,31.14,0000 0000 0000 0000 000000
2013-08-12 00:04:26,0.29,2.43,0.00,31.97,35.74,36.87,5.72,31.67,1001.63,2012.48,2503.48,2648.09,2844.16,350.33,310.10,31.15,0000 0000 0000 0000 000000
2013-08-12 00:05:27,0.27,2.43,0.00,31.98,35.73,36.87,5.74,31.63,1001.61,2012.60,2503.10,2647.96,2843.98,349.89,309.74,31.15,0000 0000 0000 0000 000000
2013-08-12 00:06:27,0.27,2.43,0.00,31.98,35.73,36.94,5.72,31.96,1001.59,2012.72,2502.52,2647.50,2843.51,349.82,309.62,31.16,0000 0000 0000 0000 000000
2013-08-12 00:07:27,0.38,2.44,0.00,31.92,35.73,36.94,5.72,31.88,1001.57,2012.83,2502.05,2647.18,2843.19,349.71,310.00,31.16,0000 0000 0000 0000 000000
2013-08-12 00:08:28,0.35,2.44,0.00,31.95,35.73,36.94,5.82,31.79,1001.61,2012.89,2501.43,2646.92,2842.83,350.91,310.04,31.17,0000 0000 0000 0000 000000
2013-08-12 00:09:28,0.33,2.44,0.00,31.97,35.73,36.93,5.67,31.75,1001.67,2012.93,2500.80,2646.39,2842.31,349.53,309.40,31.18,0000 0000 0000 0000 000000
2013-08-12 00:10:28,0.36,2.44,0.00,31.94,35.73,36.93,5.65,31.50,1001.70,2012.97,2500.14,2646.07,2841.78,349.35,309.29,31.18,0000 0000 0000 0000 000000
2013-08-12 00:11:29,0.41,2.45,0.00,31.92,35.72,36.91,5.62,31.63,1001.73,2012.97,2499.43,2645.48,2841.27,348.92,308.94,31.19,0000 0000 0000 0000 000000
2013-08-12 00:12:29,0.37,2.45,0.00,31.93,35.72,36.90,5.70,31.63,1001.66,2012.97,2498.68,2645.09,2840.73,349.30,309.23,31.19,0000 0000 0000 0000 000000
2013-08-12 00:13:29,0.37,2.45,0.00,31.97,35.72,36.93,5.83,31.83,1001.68,2012.98,2498.02,2644.56,2840.24,350.67,310.42,31.20,0000 0000 0000 0000 000000
2013-08-12 00:14:29,0.39,2.45,0.00,31.88,35.72,36.93,5.61,31.54,1001.63,2012.99,2497.39,2644.18,2839.61,349.45,309.41,31.21,0000 0000 0000 0000 000000
2013-08-12 00:15:30,0.34,2.45,0.00,31.89,35.72,36.92,5.55,31.50,1001.57,2012.99,2496.77,2643.63,2839.19,349.47,309.40,31.21,0000 0000 0000 0000 000000
2013-08-12 00:16:30,0.37,2.46,0.00,31.93,35.72,36.91,5.76,31.67,1001.57,2012.99,2496.22,2643.22,2838.60,349.78,309.64,31.22,0000 0000 0000 0000 000000
2013-08-12 00:17:30,0.33,2.46,0.00,31.99,35.72,36.92,5.66,31.54,1001.59,2012.99,2495.54,2642.74,2838.06,349.81,309.61,31.22,0000 0000 0000 0000 000000
2013-08-12 00:18:31,0.38,2.46,0.00,31.95,35.71,36.91,5.47,31.58,1001.60,2012.99,2495.01,2642.27,2837.43,348.87,309.02,31.23,0000 0000 0000 0000 000000
2013-08-12 00:19:31,0.35,2.46,0.00,31.93,35.70,36.90,5.83,31.63,1001.69,2012.99,2494.37,2641.81,2836.98,350.53,310.43,31.23,0000 0000 0000 0000 000000
2013-08-12 00:20:31,0.38,2.46,0.00,31.89,35.70,36.89,5.68,31.79,1001.81,2012.99,2493.65,2641.31,2836.38,350.11,310.29,31.24,0000 0000 0000 0000 000000
2013-08-12 00:21:31,0.34,2.47,0.00,31.90,35.70,36.91,5.53,31.67,1001.85,2012.99,2493.08,2640.99,2835.98,348.90,308.98,31.25,0000 0000 0000 0000 000000
2013-08-12 00:22:32,0.35,2.47,0.00,31.93,35.70,36.93,5.73,31.58,1001.89,2012.99,2492.44,2640.43,2835.40,350.45,310.33,31.25,0000 0000 0000 0000 000000
2013-08-12 00:23:32,0.33,2.47,0.00,31.91,35.70,36.91,5.80,31.75,1001.92,2012.99,2491.82,2640.07,2834.91,351.12,310.95,31.26,0000 0000 0000 0000 000000
2013-08-12 00:24:32,0.36,2.47,0.00,31.88,35.70,36.89,5.71,31.63,1001.92,2012.99,2491.14,2639.49,2834.35,350.04,310.01,31.26,0000 0000 0000 0000 000000
2013-08-12 00:25:32,0.38,2.47,0.00,31.87,35.70,36.90,5.71,31.50,1001.94,2012.99,2490.45,2639.14,2833.84,349.93,310.34,31.27,0000 0000 0000 0000 000000
2013-08-12 00:26:33,0.34,2.48,0.00,31.91,35.70,36.89,5.77,31.67,1001.96,2012.99,2489.74,2638.60,2833.31,350.46,310.45,31.28,0000 0000 0000 0000 000000
2013-08-12 00:27:33,0.38,2.48,0.00,31.90,35.70,36.87,5.66,31.71,1001.93,2013.00,2489.16,2638.19,2832.73,350.34,310.02,31.28,0000 0000 0000 0000 000000
2013-08-12 00:28:33,0.37,2.48,0.00,31.94,35.70,36.85,5.79,31.75,1001.92,2013.00,2488.48,2637.59,2832.23,350.29,310.18,31.29,0000 0000 0000 0000 000000
2013-08-12 00:29:33,0.36,2.48,0.00,31.96,35.70,36.88,5.71,31.63,1001.93,2013.00,2487.81,2637.18,2831.64,350.58,310.43,31.29,0000 0000 0000 0000 000000
2013-08-12 00:30:34,0.37,2.49,0.00,31.95,35.70,36.88,5.73,31.71,1001.95,2013.00,2487.26,2636.68,2831.20,350.34,310.08,31.30,0000 0000 0000 0000 000000
2013-08-12 00:31:34,0.35,2.49,0.00,31.88,35.69,36.91,5.62,31.63,1001.93,2013.01,2486.60,2636.25,2830.61,349.29,309.36,31.31,0000 0000 0000 0000 000000
2013-08-12 00:32:34,0.33,2.49,0.00,31.88,35.69,36.90,5.66,31.46,1001.84,2013.00,2486.07,2635.86,2830.19,350.06,310.01,31.31,0000 0000 0000 0000 000000
2013-08-12 00:33:34,0.35,2.49,0.00,31.87,35.68,36.88,5.70,31.54,1001.90,2013.00,2485.45,2635.33,2829.64,350.25,310.22,31.32,0000 0000 0000 0000 000000
2013-08-12 00:34:35,0.33,2.49,0.00,31.97,35.68,36.86,5.74,31.67,1001.85,2013.00,2484.96,2635.06,2829.20,349.91,309.79,31.32,0000 0000 0000 0000 000000
2013-08-12 00:35:35,0.29,2.50,0.00,31.99,35.68,36.86,5.66,31.75,1001.90,2013.00,2484.38,2634.52,2828.67,350.47,309.85,31.33,0000 0000 0000 0000 000000
2013-08-12 00:36:35,0.35,2.50,0.00,31.93,35.68,36.85,5.61,31.50,1001.94,2013.01,2483.74,2634.13,2828.22,349.12,309.17,31.33,0000 0000 0000 0000 000000
2013-08-12 00:37:36,0.34,2.50,0.00,31.92,35.68,36.86,5.78,31.38,1001.97,2013.01,2483.16,2633.66,2827.64,350.64,310.59,31.34,0000 0000 0000 0000 000000
2013-08-12 00:38:36,0.37,2.50,0.00,31.89,35.68,36.87,5.80,31.75,1001.97,2013.01,2482.49,2633.24,2827.22,350.36,310.31,31.35,0000 0000 0000 0000 000000
2013-08-12 00:39:36,0.31,2.50,0.00,31.87,35.67,36.89,5.84,31.67,1001.97,2013.02,2481.88,2632.85,2826.63,350.82,310.74,31.35,0000 0000 0000 0000 000000
2013-08-12 00:40:36,0.37,2.51,0.00,31.87,35.67,36.92,5.67,31.63,1001.94,2013.02,2481.31,2632.34,2826.19,349.52,309.58,31.36,0000 0000 0000 0000 000000
2013-08-12 00:41:37,0.32,2.51,0.00,31.86,35.67,36.93,5.83,31.67,1001.90,2013.02,2480.66,2632.04,2825.64,350.41,310.36,31.36,0000 0000 0000 0000 000000
2013-08-12 00:42:37,0.32,2.51,0.00,31.86,35.67,36.91,5.71,31.79,1001.89,2013.03,2480.03,2631.51,2825.21,351.01,310.94,31.37,0000 0000 0000 0000 000000
2013-08-12 00:43:37,0.37,2.51,0.00,31.86,35.67,36.88,5.73,32.13,1001.92,2013.01,2479.36,2631.15,2824.62,350.85,310.93,31.38,0000 0000 0000 0000 000000
2013-08-12 00:44:38,0.36,2.51,0.00,31.89,35.67,36.86,5.74,32.08,1001.90,2013.00,2478.67,2630.56,2824.15,349.81,309.74,31.38,0000 0000 0000 0000 000000
2013-08-12 00:45:38,0.37,2.52,0.00,31.92,35.67,36.85,5.75,31.75,1001.88,2013.00,2478.07,2630.20,2823.58,350.42,310.31,31.39,0000 0000 0000 0000 000000
2013-08-12 00:46:38,0.32,2.52,0.00,31.94,35.67,36.85,5.70,31.63,1001.89,2013.02,2477.44,2629.82,2823.20,349.62,309.57,31.39,0000 0000 0000 0000 000000
2013-08-12 00:47:38,0.34,2.52,0.00,31.96,35.67,36.88,5.68,31.54,1001.88,2013.04,2476.92,2629.32,2822.68,350.03,309.92,31.40,0000 0000 0000 0000 000000
2013-08-12 00:48:39,0.35,2.52,0.00,31.91,35.67,36.87,5.71,31.54,1001.85,2013.04,2476.34,2629.04,2822.24,350.17,310.09,31.41,0000 0000 0000 0000 000000
2013-08-12 00:49:39,0.26,2.52,0.00,31.93,35.66,36.85,5.77,31.67,1001.84,2013.04,2475.74,2628.51,2821.75,350.27,310.16,31.41,0000 0000 0000 0000 000000
2013-08-12 00:50:39,0.39,2.53,0.00,31.94,35.66,36.90,5.62,31.63,1001.73,2013.12,2475.22,2628.16,2821.28,350.03,309.90,31.42,0000 0000 0000 0000 000000
2013-08-12 00:51:39,0.35,2.53,0.00,31.91,35.66,36.86,5.63,31.63,1001.66,2013.15,2474.58,2627.69,2820.81,349.32,309.27,31.42,0000 0000 0000 0000 000000
2013-08-12 00:52:39,0.41,2.53,0.00,31.90,35.66,36.87,5.86,31.63,1001.79,2013.11,2474.11,2627.25,2820.30,350.44,310.32,31.43,0000 0000 0000 0000 000000
2013-08-12 00:53:40,0.26,2.53,0.00,31.90,35.65,36.98,5.74,31.71,1001.75,2013.09,2473.45,2626.79,2819.84,349.96,309.88,31.43,0000 0000 0000 0000 000000
2013-08-12 00:54:40,0.35,2.53,0.00,31.91,35.65,37.03,5.60,31.67,1001.82,2013.10,2472.82,2626.30,2819.32,349.57,309.54,31.44,0000 0000 0000 0000 000000
2013-08-12 00:55:40,0.35,2.54,0.00,31.91,35.65,37.05,5.71,31.38,1001.81,2013.11,2472.29,2625.86,2818.85,350.01,309.89,31.45,0000 0000 0000 0000 000000
2013-08-12 00:56:40,0.38,2.54,0.00,31.95,35.65,36.96,5.79,31.67,1001.72,2013.14,2471.83,2625.34,2818.32,350.52,310.16,31.45,0000 0000 0000 0000 000000
2013-08-12 00:57:41,0.33,2.54,0.00,31.91,35.65,36.91,5.62,31.92,1001.60,2013.21,2471.28,2625.06,2817.98,349.05,309.39,31.46,0000 0000 0000 0000 000000
2013-08-12 00:58:41,0.31,2.54,0.00,31.92,35.65,36.91,5.77,31.54,1001.56,2013.19,2470.64,2624.55,2817.41,350.12,310.04,31.46,0000 0000 0000 0000 000000
2013-08-12 00:59:41,0.36,2.54,0.00,31.92,35.65,36.99,5.77,31.75,1001.65,2013.25,2470.17,2624.19,2817.07,349.80,309.75,31.47,0000 0000 0000 0000 000000
2013-08-12 01:00:41,0.29,2.55,0.00,31.89,35.65,37.04,5.64,31.54,1001.67,2013.22,2469.56,2623.78,2816.52,349.24,309.23,31.48,0000 0000 0000 0000 000000
2013-08-12 01:01:42,0.36,2.55,0.00,31.93,35.65,36.99,5.61,31.63,1001.67,2013.26,2469.11,2623.31,2816.17,349.59,309.77,31.48,0000 0000 0000 0000 000000
2013-08-12 01:02:42,0.34,2.55,0.00,31.93,35.65,36.97,5.78,31.63,1001.75,2013.34,2468.49,2623.09,2815.65,350.94,310.72,31.49,0000 0000 0000 0000 000000
2013-08-12 01:03:42,0.29,2.55,0.00,31.95,35.65,36.90,5.68,31.33,1001.77,2013.35,2468.02,2622.61,2815.23,349.87,309.31,31.49,0000 0000 0000 0000 000000
2013-08-12 01:04:42,0.40,2.55,0.00,31.95,35.65,36.90,5.76,31.42,1001.87,2013.35,2467.42,2622.22,2814.82,349.98,310.08,31.50,0000 0000 0000 0000 000000
2013-08-12 01:05:42,0.24,2.56,0.00,31.89,35.65,36.89,5.66,31.88,1001.90,2013.30,2466.85,2621.82,2814.32,350.13,309.68,31.50,0000 0000 0000 0000 000000
2013-08-12 01:06:42,0.37,2.56,0.00,31.90,35.65,36.88,5.70,32.00,1001.83,2013.44,2466.31,2621.32,2813.93,349.72,309.80,31.51,0000 0000 0000 0000 000000
2013-08-12 01:07:43,0.47,2.56,0.00,31.89,35.65,36.86,5.72,31.50,1001.79,2013.56,2465.82,2621.06,2813.37,350.23,310.14,31.52,0000 0000 0000 0000 000000
2013-08-12 01:08:43,0.33,2.56,0.00,31.89,35.65,36.84,5.75,31.58,1001.77,2013.49,2465.31,2620.54,2813.06,349.71,309.67,31.52,0000 0000 0000 0000 000000
2013-08-12 01:09:43,0.25,2.56,0.00,31.94,35.64,36.87,5.75,31.42,1001.84,2013.52,2464.96,2620.20,2812.53,350.48,310.34,31.53,0000 0000 0000 0000 000000
2013-08-12 01:10:44,0.26,2.57,0.00,31.92,35.64,36.88,5.66,31.63,1001.88,2013.58,2464.40,2620.04,2812.19,350.88,310.72,31.53,0000 0000 0000 0000 000000
2013-08-12 01:11:44,0.35,2.57,0.00,31.90,35.64,36.86,5.64,31.79,1001.87,2013.64,2463.91,2619.59,2811.82,349.65,309.64,31.54,0000 0000 0000 0000 000000
2013-08-12 01:12:44,0.39,2.57,0.00,31.89,35.64,36.85,5.73,31.71,1001.87,2013.66,2463.35,2619.21,2811.31,350.67,310.56,31.55,0000 0000 0000 0000 000000
2013-08-12 01:13:44,0.26,2.57,0.00,31.91,35.63,36.82,5.67,31.63,1001.89,2013.68,2462.87,2618.85,2810.99,349.98,309.93,31.55,0000 0000 0000 0000 000000
2013-08-12 01:14:44,0.32,2.57,0.00,31.87,35.63,36.85,5.68,31.54,1001.83,2013.65,2462.33,2618.34,2810.44,350.09,310.05,31.56,0000 0000 0000 0000 000000
2013-08-12 01:15:45,0.31,2.57,0.00,31.86,35.63,36.86,5.61,31.46,1001.74,2013.68,2461.82,2618.09,2810.12,350.20,310.13,31.56,0000 0000 0000 0000 000000
2013-08-12 01:16:45,0.29,2.58,0.00,31.89,35.63,36.87,5.68,31.63,1001.58,2013.81,2461.30,2617.80,2809.70,349.12,309.10,31.57,0000 0000 0000 0000 000000
2013-08-12 01:17:45,0.39,2.58,0.00,31.90,35.63,36.87,5.63,31.75,1001.53,2013.86,2460.85,2617.31,2809.26,348.69,308.69,31.58,0000 0000 0000 0000 000000
2013-08-12 01:18:45,0.34,2.58,0.00,31.90,35.63,36.86,5.66,31.71,1001.50,2013.86,2460.30,2617.07,2808.96,348.88,308.90,31.58,0000 0000 0000 0000 000000
2013-08-12 01:19:46,0.24,2.58,0.00,31.98,35.62,36.81,5.93,31.79,1001.49,2013.86,2459.69,2616.58,2808.39,351.54,311.12,31.59,0000 0000 0000 0000 000000
2013-08-12 01:20:46,0.38,2.58,0.00,32.01,35.63,36.87,5.63,31.71,1001.49,2013.91,2459.22,2616.21,2808.09,348.72,308.59,31.59,0000 0000 0000 0000 000000
2013-08-12 01:21:46,0.29,2.59,0.00,31.97,35.63,36.96,5.75,31.67,1001.52,2013.93,2458.68,2615.89,2807.56,350.09,309.85,31.60,0000 0000 0000 0000 000000
2013-08-12 01:22:46,0.33,2.59,0.00,31.92,35.62,36.97,5.67,31.79,1001.51,2013.94,2458.23,2615.38,2807.18,349.26,309.17,31.60,0000 0000 0000 0000 000000
2013-08-12 01:23:46,0.29,2.59,0.00,31.91,35.62,36.90,5.79,31.67,1001.52,2013.92,2457.70,2615.13,2806.69,350.00,309.81,31.61,0000 0000 0000 0000 000000
2013-08-12 01:24:47,0.28,2.59,0.00,31.90,35.62,36.87,5.73,31.50,1001.51,2013.92,2457.22,2614.79,2806.26,350.63,310.59,31.62,0000 0000 0000 0000 000000
2013-08-12 01:25:47,0.31,2.59,0.00,31.88,35.62,36.88,5.65,31.33,1001.52,2013.95,2456.63,2614.30,2805.95,350.02,309.56,31.62,0000 0000 0000 0000 000000
2013-08-12 01:26:47,0.32,2.60,0.00,31.87,35.62,36.88,5.69,31.79,1001.50,2013.94,2456.21,2614.06,2805.43,349.53,309.12,31.63,0000 0000 0000 0000 000000
2013-08-12 01:27:47,0.24,2.60,0.00,31.86,35.62,36.89,5.67,31.88,1001.48,2013.95,2455.70,2613.63,2805.10,349.90,309.79,31.63,0000 0000 0000 0000 000000
2013-08-12 01:28:48,0.31,2.60,0.00,31.87,35.62,36.88,5.76,31.71,1001.48,2013.95,2455.22,2613.23,2804.55,349.17,309.13,31.64,0000 0000 0000 0000 000000
2013-08-12 01:29:48,0.31,2.60,0.00,31.87,35.62,36.86,5.67,31.58,1001.49,2013.94,2454.67,2612.99,2804.20,349.47,309.40,31.65,0000 0000 0000 0000 000000
2013-08-12 01:30:48,0.24,2.60,0.00,31.93,35.62,36.87,5.67,31.75,1001.48,2013.92,2454.22,2612.52,2803.90,349.38,309.25,31.65,0000 0000 0000 0000 000000
2013-08-12 01:31:48,0.26,2.60,0.00,31.92,35.62,36.88,5.77,31.50,1001.49,2013.94,2453.65,2612.20,2803.38,350.66,310.40,31.66,0000 0000 0000 0000 000000
2013-08-12 01:32:49,0.35,2.61,0.00,31.89,35.62,36.83,5.67,31.58,1001.51,2013.95,2453.15,2611.92,2803.07,349.96,309.82,31.66,0000 0000 0000 0000 000000
2013-08-12 01:33:49,0.23,2.61,0.00,31.88,35.62,36.89,5.72,31.46,1001.50,2013.94,2452.56,2611.41,2802.56,350.51,310.31,31.67,0000 0000 0000 0000 000000
2013-08-12 01:34:49,0.39,2.61,0.00,31.87,35.62,36.92,5.75,31.67,1001.49,2013.96,2452.10,2611.12,2802.16,349.64,309.62,31.67,0000 0000 0000 0000 000000
2013-08-12 01:35:50,0.23,2.61,0.00,31.93,35.62,36.91,5.67,31.42,1001.48,2013.94,2451.48,2610.66,2801.60,349.62,309.92,31.68,0000 0000 0000 0000 000000
2013-08-12 01:36:50,0.38,2.61,0.00,31.95,35.62,36.85,5.60,31.67,1001.49,2013.93,2450.98,2610.24,2801.17,349.14,309.02,31.69,0000 0000 0000 0000 000000
2013-08-12 01:37:50,0.27,2.61,0.00,31.93,35.62,36.81,5.78,31.83,1001.49,2013.94,2450.37,2609.86,2800.63,349.75,309.65,31.69,0000 0000 0000 0000 000000
2013-08-12 01:38:50,0.39,2.62,0.00,31.95,35.62,36.82,5.68,31.29,1001.49,2013.93,2449.77,2609.34,2800.24,350.20,309.96,31.70,0000 0000 0000 0000 000000
2013-08-12 01:39:50,0.33,2.62,0.00,31.98,35.62,36.82,5.75,31.29,1001.49,2013.96,2449.23,2609.10,2799.93,350.53,310.32,31.70,0000 0000 0000 0000 000000
2013-08-12 01:40:50,0.24,2.62,0.00,31.92,35.62,36.85,5.84,31.83,1001.51,2013.96,2448.63,2608.62,2799.40,350.38,310.04,31.71,0000 0000 0000 0000 000000
2013-08-12 01:41:51,0.42,2.62,0.00,31.90,35.61,36.87,5.77,31.83,1001.50,2013.90,2448.13,2608.22,2798.95,350.38,310.34,31.72,0000 0000 0000 0000 000000
2013-08-12 01:42:51,0.19,2.62,0.00,31.89,35.61,36.86,5.62,31.88,1001.50,2013.87,2447.47,2607.83,2798.41,349.84,309.92,31.72,0000 0000 0000 0000 000000
2013-08-12 01:43:51,0.38,2.63,0.00,31.89,35.61,36.82,5.72,31.63,1001.48,2013.88,2446.75,2607.33,2797.99,349.95,309.67,31.73,0000 0000 0000 0000 000000
2013-08-12 01:44:51,0.40,2.63,0.00,31.87,35.60,36.84,5.73,31.92,1001.49,2013.88,2446.25,2607.09,2797.43,349.55,309.26,31.73,0000 0000 0000 0000 000000
2013-08-12 01:45:51,0.21,2.63,0.00,31.95,35.60,36.84,5.69,31.71,1001.49,2013.88,2445.67,2606.65,2797.14,350.29,309.95,31.74,0000 0000 0000 0000 000000
2013-08-12 01:46:52,0.34,2.63,0.00,31.95,35.60,36.84,5.67,31.71,1001.49,2013.89,2445.18,2606.25,2796.63,349.51,309.50,31.74,0000 0000 0000 0000 000000
2013-08-12 01:47:52,0.32,2.63,0.00,31.93,35.60,36.84,5.71,31.75,1001.51,2013.94,2444.58,2606.06,2796.24,349.60,309.68,31.75,0000 0000 0000 0000 000000
2013-08-12 01:48:52,0.29,2.64,0.00,31.88,35.60,36.88,5.73,31.67,1001.50,2013.96,2444.15,2605.65,2795.94,349.68,309.57,31.76,0000 0000 0000 0000 000000
2013-08-12 01:49:52,0.27,2.64,0.00,31.89,35.60,36.98,5.77,31.75,1001.49,2013.93,2443.61,2605.26,2795.43,350.22,309.87,31.76,0000 0000 0000 0000 000000
2013-08-12 01:50:52,0.31,2.64,0.00,31.93,35.60,36.95,5.59,31.33,1001.49,2013.93,2443.20,2605.04,2795.13,350.27,310.26,31.77,0000 0000 0000 0000 000000
2013-08-12 01:51:53,0.16,2.64,0.00,31.93,35.60,36.88,5.67,31.50,1001.48,2013.93,2442.76,2604.55,2794.59,350.06,309.92,31.77,0000 0000 0000 0000 000000
2013-08-12 01:52:53,0.40,2.64,0.00,31.88,35.60,36.85,5.71,31.71,1001.49,2013.86,2442.20,2604.19,2794.20,348.96,308.93,31.78,0000 0000 0000 0000 000000
2013-08-12 01:53:53,0.15,2.64,0.00,31.93,35.60,36.85,5.75,31.33,1001.48,2013.83,2441.54,2603.88,2793.79,349.85,309.67,31.79,0000 0000 0000 0000 000000
2013-08-12 01:54:54,0.32,2.64,0.00,31.91,35.60,36.87,5.75,31.67,1001.48,2013.78,2441.06,2603.38,2793.30,350.78,310.18,31.79,0000 0000 0000 0000 000000
2013-08-12 01:55:54,0.28,2.65,0.00,31.91,35.60,36.82,5.63,31.63,1001.48,2013.77,2440.43,2603.10,2792.92,349.59,309.46,31.80,0000 0000 0000 0000 000000
2013-08-12 01:56:54,0.28,2.65,0.00,31.95,35.60,36.83,5.47,31.42,1001.48,2013.80,2439.83,2602.77,2792.39,347.98,308.40,31.80,0000 0000 0000 0000 000000
2013-08-12 01:57:54,0.39,2.65,0.00,31.99,35.60,36.84,5.72,31.50,1001.48,2013.82,2439.22,2602.31,2792.09,350.46,310.24,31.81,0000 0000 0000 0000 000000
2013-08-12 01:58:54,0.30,2.65,0.00,31.97,35.60,36.85,5.63,31.46,1001.48,2013.75,2438.55,2602.01,2791.58,349.11,309.03,31.82,0000 0000 0000 0000 000000
2013-08-12 01:59:54,0.25,2.65,0.00,31.92,35.60,36.83,5.66,31.92,1001.48,2013.78,2438.02,2601.51,2791.21,349.02,308.88,31.82,0000 0000 0000 0000 000000
2013-08-12 02:00:55,0.42,2.66,0.00,31.95,35.60,36.85,5.62,31.79,1001.48,2013.85,2437.40,2601.19,2790.89,348.61,308.56,31.83,0000 0000 0000 0000 000000
2013-08-12 02:01:55,0.34,2.66,0.00,31.95,35.60,36.84,5.58,31.63,1001.48,2013.78,2436.88,2600.96,2790.36,349.36,309.22,31.83,0000 0000 0000 0000 000000
2013-08-12 02:02:55,0.18,2.66,0.00,31.96,35.60,36.85,5.68,31.29,1001.48,2013.85,2436.33,2600.47,2790.11,350.22,309.97,31.84,0000 0000 0000 0000 000000
2013-08-12 02:03:55,0.38,2.66,0.00,31.95,35.60,36.86,5.75,31.46,1001.48,2013.89,2435.78,2600.17,2789.62,350.22,309.97,31.84,0000 0000 0000 0000 000000
2013-08-12 02:04:55,0.33,2.66,0.00,31.95,35.60,36.85,5.76,31.54,1001.48,2013.94,2435.28,2599.91,2789.23,349.87,309.73,31.85,0000 0000 0000 0000 000000
2013-08-12 02:05:56,0.30,2.67,0.00,31.92,35.60,36.86,5.65,31.54,1001.48,2013.96,2434.72,2599.43,2788.89,350.94,310.45,31.86,0000 0000 0000 0000 000000
2013-08-12 02:06:56,0.35,2.67,0.00,31.92,35.60,36.93,5.71,31.58,1001.48,2013.92,2434.24,2599.16,2788.37,350.31,310.08,31.86,0000 0000 0000 0000 000000
2013-08-12 02:07:56,0.21,2.67,0.00,31.90,35.60,36.95,5.67,31.67,1001.48,2013.94,2433.67,2598.88,2788.12,349.69,309.56,31.87,0000 0000 0000 0000 000000
2013-08-12 02:08:56,0.29,2.67,0.00,31.85,35.60,36.89,5.68,31.42,1001.48,2013.96,2433.24,2598.41,2787.71,349.63,309.29,31.87,0000 0000 0000 0000 000000
2013-08-12 02:09:57,0.33,2.67,0.00,31.91,35.60,36.85,5.70,31.46,1001.48,2013.97,2432.81,2598.13,2787.27,349.76,309.61,31.88,0000 0000 0000 0000 000000
2013-08-12 02:10:57,0.26,2.67,0.00,31.90,35.60,36.87,5.77,31.71,1001.48,2013.98,2432.30,2597.88,2787.00,349.51,310.13,31.89,0000 0000 0000 0000 000000
2013-08-12 02:11:57,0.21,2.67,0.00,31.93,35.60,36.90,5.78,31.42,1001.48,2013.98,2431.89,2597.38,2786.50,350.38,309.82,31.89,0000 0000 0000 0000 000000
2013-08-12 02:12:57,0.36,2.68,0.00,31.92,35.60,36.95,5.74,31.33,1001.48,2013.96,2431.37,2597.14,2786.18,350.25,310.14,31.90,0000 0000 0000 0000 000000
2013-08-12 02:13:57,0.22,2.68,0.00,31.94,35.60,36.86,5.57,31.46,1001.48,2013.98,2431.07,2596.91,2785.92,348.81,309.01,31.90,0000 0000 0000 0000 000000
2013-08-12 02:14:57,0.16,2.68,0.00,31.97,35.60,36.88,5.83,31.25,1001.48,2013.96,2430.49,2596.47,2785.40,350.80,310.45,31.91,0000 0000 0000 0000 000000
2013-08-12 02:15:58,0.36,2.68,0.00,31.97,35.60,36.86,5.74,31.50,1001.48,2013.94,2430.09,2596.17,2785.13,349.74,309.50,31.91,0000 0000 0000 0000 000000
2013-08-12 02:16:58,0.19,2.68,0.00,31.95,35.60,36.83,5.63,31.67,1001.48,2013.97,2429.50,2595.96,2784.69,349.88,309.67,31.92,0000 0000 0000 0000 000000
2013-08-12 02:17:58,0.29,2.68,0.00,31.92,35.60,36.87,5.52,31.33,1001.48,2013.96,2429.17,2595.51,2784.28,349.32,309.21,31.93,0000 0000 0000 0000 000000
2013-08-12 02:18:58,0.28,2.69,0.00,31.92,35.60,36.94,5.75,31.54,1001.48,2013.97,2428.70,2595.19,2784.08,350.31,310.09,31.93,0000 0000 0000 0000 000000
2013-08-12 02:19:59,0.23,2.69,0.00,31.91,35.60,36.91,5.76,31.42,1001.48,2013.97,2428.25,2594.96,2783.64,350.03,309.85,31.94,0000 0000 0000 0000 000000
2013-08-12 02:20:59,0.26,2.69,0.00,31.89,35.60,36.88,5.70,31.38,1001.49,2013.96,2427.74,2594.47,2783.23,350.11,309.94,31.94,0000 0000 0000 0000 000000
2013-08-12 02:21:59,0.31,2.69,0.00,31.89,35.60,36.89,5.65,31.75,1001.49,2013.97,2427.26,2594.16,2782.89,349.29,309.15,31.95,0000 0000 0000 0000 000000
2013-08-12 02:23:00,0.26,2.69,0.00,31.91,35.59,36.85,5.75,31.46,1001.48,2013.98,2426.75,2593.97,2782.41,350.05,310.03,31.96,0000 0000 0000 0000 000000
2013-08-12 02:24:00,0.26,2.69,0.00,31.95,35.60,36.91,5.73,31.50,1001.48,2013.98,2426.28,2593.46,2782.14,350.38,310.12,31.96,0000 0000 0000 0000 000000
2013-08-12 02:25:00,0.29,2.70,0.00,31.93,35.59,36.91,5.68,31.46,1001.48,2013.99,2426.03,2593.18,2781.92,349.49,309.35,31.97,0000 0000 0000 0000 000000
2013-08-12 02:26:00,0.19,2.70,0.00,31.93,35.59,36.87,5.67,31.38,1001.48,2013.99,2425.49,2593.02,2781.42,349.69,309.16,31.97,0000 0000 0000 0000 000000
2013-08-12 02:27:00,0.27,2.70,0.00,31.90,35.59,36.87,5.79,31.50,1001.48,2013.98,2425.14,2592.58,2781.14,350.16,309.97,31.98,0000 0000 0000 0000 000000
2013-08-12 02:28:01,0.26,2.70,0.00,31.93,35.59,36.85,5.68,31.63,1001.48,2013.99,2424.57,2592.21,2780.77,349.85,309.77,31.98,0000 0000 0000 0000 000000
2013-08-12 02:29:01,0.29,2.70,0.00,31.95,35.59,36.88,5.67,31.38,1001.48,2013.98,2424.21,2592.04,2780.31,350.07,310.13,31.99,0000 0000 0000 0000 000000
2013-08-12 02:30:01,0.21,2.70,0.00,31.96,35.59,36.87,5.77,31.42,1001.48,2013.99,2423.85,2591.68,2780.08,350.33,309.72,32.00,0000 0000 0000 0000 000000
2013-08-12 02:31:01,0.23,2.70,0.00,31.93,35.59,36.87,5.57,31.50,1001.48,2013.97,2423.36,2591.26,2779.66,348.88,308.80,32.00,0000 0000 0000 0000 000000
2013-08-12 02:32:02,0.28,2.71,0.00,31.91,35.59,36.86,5.57,31.54,1001.48,2013.97,2423.10,2591.09,2779.27,349.32,309.59,32.01,0000 0000 0000 0000 000000
2013-08-12 02:33:02,0.17,2.71,0.00,31.93,35.59,36.86,5.80,31.38,1001.48,2013.98,2422.67,2590.87,2779.08,350.10,310.10,32.01,0000 0000 0000 0000 000000
2013-08-12 02:34:02,0.20,2.71,0.00,31.94,35.59,36.86,5.76,31.63,1001.48,2013.99,2422.26,2590.43,2778.86,349.48,309.71,32.02,0000 0000 0000 0000 000000
2013-08-12 02:35:02,0.26,2.71,0.00,31.98,35.59,36.87,5.72,31.25,1001.48,2013.95,2421.97,2590.16,2778.38,349.76,310.11,32.03,0000 0000 0000 0000 000000
2013-08-12 02:36:02,0.19,2.71,0.00,32.02,35.59,36.87,5.67,31.38,1001.48,2013.96,2421.47,2590.00,2778.13,349.06,309.13,32.03,0000 0000 0000 0000 000000